Change the Weather History Date:

Tuesday, December 9, 2014

  Actual Average Record
Temperature  
Mean Temperature 61 °F 45 °F  
Max Temperature 64 °F 51 °F 65 °F (1993)
Min Temperature 57 °F 40 °F 17 °F (1932)
Degree Days  
Heating Degree Days 4 20  
Month to date heating degree days 94 173  
Since 1 July heating degree days 970 1625  
Cooling Degree Days 0 0  
Month to date cooling degree days 0 0  
Year to date cooling degree days 28 2  
Growing Degree Days 10 (Base 50)    
Moisture  
Dew Point 56 °F    
Average Humidity 85    
Maximum Humidity 100    
Minimum Humidity 63    
Precipitation  
Precipitation 0.42 in 0.35 in 4.28 in (1968)
Month to date precipitation 4.93 3.37  
Year to date precipitation 39.77 57.15  
Sea Level Pressure  
Sea Level Pressure 29.91 in    
Wind  
Wind Speed 10 mph (SSE)    
Max Wind Speed 20 mph    
Max Gust Speed 28 mph    
Visibility 10 miles    
Events      
T = Trace of Precipitation, MM = Missing Value Source: NWS Daily Summary

Daily Weather History Graph

Daily Weather History Graph

Search for Another Location

Airport or City:

Trip Planner

Search our weather history database for the weather conditions in past years. The results will help you decide how hot, cold, wet, or windy it might be!

Date:

Astronomy

Dec. 09, 2014 Rise Set
Actual Time 7:37 AM PST 4:40 PM PST
Civil Twilight 7:05 AM PST 5:13 PM PST
Nautical Twilight 6:29 AM PST 5:49 PM PST
Astronomical Twilight 5:54 AM PST 6:23 PM PST
Moon 8:08 PM PST (12/9) 9:51 AM PST (12/9)
Length of Visible Light 10h 07m
Length of Day
9h 02m
Waning Gibbous, 89% of the Moon is Illuminated
Dec 9
Waning Gibbous
Dec 14
Last Quarter
Dec 21
New
Dec 28
First Quarter
Jan 4
Full

Hourly Weather History & Observations

Time (PST) Temp. Dew Point Humidity Pressure Visibility Wind Dir Wind Speed Gust Speed Precip Events Conditions
12:15 AM 62.6 °F 51.8 °F 68% 29.94 in 10.0 mi South 18.4 mph 24.2 mph N/A   Overcast
12:35 AM 62.6 °F 51.8 °F 68% 29.94 in 10.0 mi South 12.7 mph - N/A   Overcast
12:55 AM 62.6 °F 51.8 °F 68% 29.93 in 10.0 mi South 13.8 mph 19.6 mph N/A   Overcast
1:15 AM 64.4 °F 51.8 °F 64% 29.92 in 10.0 mi South 18.4 mph 24.2 mph N/A   Overcast
1:35 AM 64.4 °F 51.8 °F 64% 29.92 in 10.0 mi SSE 13.8 mph 21.9 mph N/A   Overcast
1:55 AM 64.4 °F 51.8 °F 64% 29.91 in 10.0 mi South 16.1 mph 21.9 mph N/A   Overcast
2:15 AM 64.4 °F 51.8 °F 64% 29.92 in 10.0 mi South 10.4 mph 20.7 mph N/A   Overcast
2:35 AM 62.6 °F 51.8 °F 68% 29.92 in 10.0 mi SSE 9.2 mph - N/A   Overcast
2:55 AM 62.6 °F 51.8 °F 68% 29.92 in 10.0 mi South 9.2 mph - N/A   Overcast
3:15 AM 62.6 °F 51.8 °F 68% 29.92 in 10.0 mi South 10.4 mph - N/A   Overcast
3:35 AM 62.6 °F 51.8 °F 68% 29.92 in 10.0 mi South 10.4 mph - N/A   Overcast
3:55 AM 62.6 °F 51.8 °F 68% 29.91 in 10.0 mi SSE 10.4 mph - N/A   Overcast
4:15 AM 62.6 °F 51.8 °F 68% 29.91 in 10.0 mi SSE 11.5 mph - N/A   Overcast
4:35 AM 62.6 °F 51.8 °F 68% 29.89 in 10.0 mi SSE 12.7 mph - N/A   Overcast
4:55 AM 64.4 °F 51.8 °F 64% 29.88 in 10.0 mi SSE 19.6 mph 27.6 mph N/A   Overcast
5:15 AM 64.4 °F 51.8 °F 64% 29.88 in 10.0 mi South 12.7 mph 20.7 mph N/A   Overcast
5:35 AM 64.4 °F 51.8 °F 64% 29.89 in 10.0 mi South 17.3 mph 21.9 mph N/A   Overcast
5:55 AM 62.6 °F 55.4 °F 77% 29.91 in 10.0 mi South 13.8 mph - N/A   Overcast
6:15 AM 60.8 °F 55.4 °F 82% 29.92 in 10.0 mi South 11.5 mph 18.4 mph N/A   Overcast
6:35 AM 60.8 °F 55.4 °F 82% 29.91 in 10.0 mi SSE 11.5 mph 19.6 mph N/A   Overcast
6:55 AM 60.8 °F 55.4 °F 82% 29.91 in 10.0 mi South 16.1 mph 21.9 mph N/A   Overcast
7:15 AM 62.6 °F 55.4 °F 77% 29.92 in 10.0 mi South 15.0 mph 20.7 mph N/A   Overcast
7:35 AM 62.6 °F 53.6 °F 72% 29.93 in 10.0 mi South 15.0 mph 21.9 mph N/A   Overcast
7:55 AM 62.6 °F 55.4 °F 77% 29.94 in 10.0 mi South 13.8 mph 24.2 mph N/A   Overcast
8:15 AM 60.8 °F 55.4 °F 82% 29.93 in 10.0 mi SSE 12.7 mph 23.0 mph N/A   Overcast
8:35 AM 60.8 °F 55.4 °F 82% 29.93 in 10.0 mi South 18.4 mph 24.2 mph 0.02 in   Overcast
8:55 AM 60.8 °F 57.2 °F 88% 29.94 in 10.0 mi South 12.7 mph - 0.04 in   Overcast
9:15 AM 59.0 °F 57.2 °F 94% 29.95 in 10.0 mi SSE 17.3 mph 21.9 mph 0.05 in   Overcast
9:35 AM 59.0 °F 57.2 °F 94% 29.96 in 10.0 mi SSE 11.5 mph 20.7 mph 0.07 in   Mostly Cloudy
9:55 AM 59.0 °F 57.2 °F 94% 29.96 in 10.0 mi SSE 12.7 mph - 0.09 in   Overcast
10:15 AM 59.0 °F 57.2 °F 94% 29.97 in 10.0 mi South 8.1 mph 21.9 mph 0.01 in   Overcast
10:35 AM 60.8 °F 57.2 °F 88% 29.98 in 10.0 mi South 13.8 mph 17.3 mph 0.02 in   Overcast
10:55 AM 60.8 °F 57.2 °F 88% 29.99 in 10.0 mi SSE 9.2 mph - 0.05 in   Overcast
11:15 AM 59.0 °F 59.0 °F 100% 29.99 in 9.0 mi SSE 8.1 mph - 0.06 in   Overcast
11:35 AM 59.0 °F 59.0 °F 100% 29.98 in 9.0 mi SSE 9.2 mph - 0.10 in   Overcast
11:55 AM 60.8 °F 60.8 °F 100% 29.99 in 10.0 mi South 8.1 mph - 0.11 in   Overcast
12:15 PM 60.8 °F 59.0 °F 94% 29.98 in 7.0 mi SE 5.8 mph - 0.01 in   Overcast
12:35 PM 60.8 °F 59.0 °F 94% 29.98 in 10.0 mi SE 4.6 mph - 0.01 in   Overcast
12:55 PM 59.0 °F 59.0 °F 100% 29.97 in 8.0 mi SE 3.5 mph - 0.02 in   Overcast
1:15 PM 59.0 °F 59.0 °F 100% 29.96 in 8.0 mi SE 3.5 mph - N/A   Overcast
1:35 PM 60.8 °F 59.0 °F 94% 29.96 in 7.0 mi SE 4.6 mph - 0.01 in   Overcast
1:55 PM 59.0 °F 59.0 °F 100% 29.95 in 10.0 mi SE 5.8 mph - 0.05 in   Overcast
2:15 PM 59.0 °F 59.0 °F 100% 29.95 in 9.0 mi SE 3.5 mph - 0.02 in   Overcast
2:35 PM 59.0 °F 59.0 °F 100% 29.95 in 10.0 mi SSE 4.6 mph - 0.02 in   Overcast
2:55 PM 60.8 °F 59.0 °F 94% 29.94 in 10.0 mi SSE 4.6 mph - 0.02 in   Overcast
3:15 PM 60.8 °F 59.0 °F 94% 29.93 in 10.0 mi SE 6.9 mph - N/A   Overcast
3:35 PM 60.8 °F 59.0 °F 94% 29.93 in 10.0 mi SSE 8.1 mph - N/A   Overcast
3:55 PM 60.8 °F 59.0 °F 94% 29.93 in 10.0 mi SSE 6.9 mph - N/A   Overcast
4:15 PM 60.8 °F 59.0 °F 94% 29.93 in 5.0 mi SSE 5.8 mph - 0.01 in   Overcast
4:35 PM 60.8 °F 59.0 °F 94% 29.93 in 10.0 mi SSE 9.2 mph - 0.01 in   Overcast
4:55 PM 59.0 °F 57.2 °F 94% 29.94 in 10.0 mi SSE 6.9 mph - 0.01 in   Overcast
5:15 PM 59.0 °F 57.2 °F 94% 29.92 in 10.0 mi SE 8.1 mph - N/A   Overcast
5:35 PM 59.0 °F 57.2 °F 94% 29.92 in 8.0 mi SE 8.1 mph - N/A   Overcast
5:55 PM 59.0 °F 57.2 °F 94% 29.92 in 4.0 mi SSE 9.2 mph - 0.01 in   Overcast
6:15 PM 59.0 °F 57.2 °F 94% 29.91 in 4.0 mi SSE 10.4 mph - N/A   Overcast
6:35 PM 59.0 °F 57.2 °F 94% 29.90 in 9.0 mi SE 10.4 mph - N/A   Overcast
6:55 PM 59.0 °F 57.2 °F 94% 29.90 in 10.0 mi SSE 8.1 mph - N/A   Overcast
7:15 PM 59.0 °F 57.2 °F 94% 29.90 in 9.0 mi SSE 9.2 mph - N/A   Overcast
7:35 PM 57.2 °F 57.2 °F 100% 29.85 in 10.0 mi SE 15.0 mph - 0.01 in   Overcast
7:55 PM 59.0 °F 57.2 °F 94% 29.87 in 10.0 mi SSE 12.7 mph - 0.01 in   Overcast
8:15 PM 59.0 °F 57.2 °F 94% 29.87 in 10.0 mi SSE 9.2 mph - N/A   Overcast
8:35 PM 59.0 °F 57.2 °F 94% 29.86 in 10.0 mi SSE 8.1 mph - N/A   Overcast
8:55 PM 59.0 °F 57.2 °F 94% 29.84 in 9.0 mi SSE 9.2 mph - N/A   Overcast
9:15 PM 59.0 °F 57.2 °F 94% 29.83 in 10.0 mi SSE 10.4 mph - N/A   Overcast
9:35 PM 59.0 °F 57.2 °F 94% 29.82 in 10.0 mi SSE 9.2 mph - 0.01 in   Overcast
9:55 PM 60.8 °F 57.2 °F 88% 29.80 in 10.0 mi SE 10.4 mph - 0.01 in   Overcast
10:15 PM 60.8 °F 57.2 °F 88% 29.81 in 10.0 mi SSE 6.9 mph - N/A   Overcast
10:35 PM 60.8 °F 57.2 °F 88% 29.81 in 10.0 mi SSE 9.2 mph - N/A   Overcast
10:55 PM 60.8 °F 57.2 °F 88% 29.80 in 10.0 mi South 5.8 mph - N/A   Overcast
11:15 PM 60.8 °F 57.2 °F 88% 29.80 in 10.0 mi SSE 5.8 mph - N/A   Overcast
11:35 PM 62.6 °F 55.4 °F 77% 29.79 in 10.0 mi South 10.4 mph 17.3 mph N/A   Overcast
11:55 PM 62.6 °F 55.4 °F 77% 29.77 in 10.0 mi South 10.4 mph 18.4 mph N/A   Overcast